GFSSW_925_spd_219.txt.gz
Wind_Speed
16 16 16 17 18 20 21 21 21 20 19 18 18 20 20 21 20 8 11 3 6 17 15 14 13 9 9 13 7 4 3 1 10 3 13 14 15 11 7 7 5 5 10 22 25
18 16 17 17 18 19 21 22 21 21 21 18 18 19 18 20 17 18 8 8 8 19 16 13 11 8 13 6 5 3 6 1 8 12 14 13 8 12 10 5 9 13 18 26 24
19 18 17 17 17 18 19 21 21 22 20 19 18 17 15 17 12 5 6 10 11 18 13 11 6 9 9 7 2 9 9 7 6 3 7 15 11 14 15 8 13 17 22 22 24
20 20 18 18 18 19 19 20 21 21 19 18 18 15 12 7 7 7 1 11 14 19 12 11 9 13 2 8 1 7 10 8 8 2 10 18 16 13 11 1 13 18 21 21 20
21 21 18 18 18 19 21 22 22 19 17 18 16 12 7 10 15 3 3 12 18 16 16 12 12 13 5 7 5 9 6 5 15 10 18 18 15 13 15 13 19 19 21 20 19
23 22 20 20 19 20 21 24 21 17 17 16 13 8 9 16 2 5 9 14 17 17 16 13 11 8 8 11 8 2 3 20 14 6 10 12 14 13 12 13 17 19 20 19 19
25 25 24 23 21 21 22 22 19 17 15 13 9 7 14 15 2 8 13 15 16 16 15 13 13 11 8 12 1 9 9 18 15 15 10 14 15 8 13 13 16 19 18 18 18
26 26 25 24 22 21 24 19 19 14 8 5 3 9 11 9 13 10 16 18 17 14 15 5 8 15 17 14 12 13 8 5 14 16 10 19 12 13 13 14 15 17 16 16 18
26 26 26 25 21 21 20 19 14 5 2 2 5 12 13 6 15 18 17 19 19 14 12 10 12 16 16 15 15 14 8 1 16 18 13 16 9 21 14 12 13 15 16 16 17
27 26 27 24 22 21 17 13 8 6 6 8 11 7 14 14 12 21 21 18 15 16 14 13 10 14 15 14 15 13 14 17 16 15 10 25 21 17 16 16 15 15 16 17 17
27 27 27 24 22 14 17 8 6 7 16 15 1 16 3 2 4 11 19 20 18 17 20 19 15 19 22 21 21 8 13 14 22 11 23 7 11 17 15 15 16 15 16 17 18
27 29 27 22 18 8 12 6 6 6 9 17 19 13 8 2 8 16 24 19 21 23 23 21 22 23 21 21 18 10 17 10 5 18 8 10 7 18 16 14 17 17 17 18 19
27 30 28 22 10 6 7 4 5 7 8 14 16 19 19 16 15 13 18 22 25 26 26 27 25 24 23 22 17 14 17 12 7 8 10 11 7 9 20 14 14 16 17 18 20
28 31 28 17 7 5 4 1 6 4 6 13 13 10 11 10 20 23 21 21 26 29 29 29 28 25 24 22 21 17 18 17 7 5 10 12 10 15 16 16 16 17 18 19 20
29 30 20 8 12 6 4 5 6 5 6 11 12 7 11 15 1 19 23 17 25 27 21 30 30 30 25 26 21 20 17 16 13 12 14 13 9 12 15 14 13 17 18 19 20
29 22 12 2 7 8 6 6 6 7 11 8 8 12 14 17 16 7 17 18 19 24 26 29 26 29 29 24 21 22 17 13 15 14 13 17 10 10 10 13 15 18 16 18 20
27 12 6 5 6 4 6 8 7 10 6 7 8 11 17 17 20 17 18 22 21 23 25 27 32 29 26 29 20 27 20 12 12 13 15 17 13 13 11 4 3 17 17 17 17
24 8 6 5 6 5 9 9 11 8 10 7 4 8 15 18 18 19 19 19 26 25 19 23 23 32 27 32 26 25 23 16 20 14 16 19 16 14 7 9 8 6 11 19 21
18 8 10 1 2 5 8 10 13 7 5 5 10 13 16 13 9 13 22 20 23 27 25 22 27 24 30 26 25 27 23 23 22 22 15 15 21 19 7 9 9 6 8 7 4
14 10 3 2 4 9 8 14 10 6 5 10 14 10 16 16 17 16 20 11 18 13 19 20 19 29 35 22 24 27 19 21 17 23 22 18 12 9 15 17 16 11 5 5 6
8 5 7 3 7 7 10 5 3 2 7 10 12 7 16 7 13 17 13 7 3 6 14 20 17 19 23 29 27 21 25 20 20 21 19 17 14 13 8 5 2 11 8 9 5
8 5 4 3 7 5 8 5 4 12 8 11 7 13 9 9 11 16 9 6 3 13 17 26 8 16 26 18 23 25 28 27 13 22 17 18 14 11 15 13 12 3 4 8 10
5 4 4 6 6 6 4 7 4 10 11 6 9 8 5 7 6 11 8 6 7 15 6 14 15 15 21 20 20 24 22 24 24 19 23 17 18 10 9 7 9 5 5 8 12
5 3 5 3 3 8 12 8 8 6 13 7 10 3 8 10 10 7 7 6 4 3 7 4 14 21 14 18 22 21 23 23 25 19 19 19 16 14 11 13 14 4 8 3 8
2 5 5 5 6 9 11 13 9 9 7 4 9 13 12 11 9 11 12 8 7 6 5 10 16 13 25 4 10 25 22 24 22 22 20 18 21 16 9 2 8 8 5 8 5
6 5 2 6 9 9 4 5 8 9 14 7 12 12 6 9 9 7 8 6 8 7 5 6 6 4 17 8 9 11 13 26 21 18 17 20 19 10 4 6 4 7 9 11 10
5 1 6 6 5 7 6 7 6 10 11 13 10 11 6 12 13 12 6 6 4 8 7 6 6 9 14 13 11 12 15 15 10 11 13 17 11 8 7 9 9 7 6 9 11

GFSSW_925_spd_222.txt.gz
Wind_Speed
18 17 16 17 17 18 20 21 21 23 23 21 20 20 22 23 25 11 11 3 5 10 13 12 16 17 14 14 9 9 4 3 6 4 11 14 13 9 9 7 9 9 23 24 24
20 19 18 17 17 18 18 20 21 21 23 22 19 19 21 22 21 19 13 9 5 13 15 18 14 13 10 5 5 5 1 2 11 3 7 8 6 16 12 13 10 16 23 28 25
21 20 19 18 18 19 19 20 21 21 21 21 19 19 18 18 12 11 10 9 8 13 15 14 14 8 16 11 7 5 5 7 5 6 21 16 11 11 11 3 15 23 24 22 24
22 21 20 19 19 19 21 22 22 23 20 19 19 18 16 8 6 6 2 7 8 14 15 18 11 12 14 11 18 6 6 7 4 7 10 13 13 9 12 12 2 20 22 21 20
24 23 21 20 20 20 20 21 24 22 20 18 17 16 9 9 17 6 1 7 11 14 17 14 13 11 12 18 9 3 14 5 11 3 5 13 14 7 11 14 5 20 20 20 18
25 25 24 23 21 21 21 21 23 19 19 17 15 13 7 16 9 4 6 11 12 18 19 18 13 6 9 21 12 10 11 2 11 13 11 4 11 20 19 21 18 20 20 19 18
25 26 25 25 23 22 21 22 20 19 17 13 12 7 12 19 5 11 13 12 15 19 17 18 15 15 14 17 9 14 9 12 15 16 12 15 2 11 11 20 18 18 17 18 17
26 27 26 25 24 23 22 22 19 18 11 8 7 7 9 14 23 19 13 16 16 20 19 21 10 12 15 17 19 15 10 5 15 17 9 15 7 12 17 17 18 17 15 17 18
26 28 29 28 25 24 24 20 19 12 8 6 6 10 15 6 19 20 19 20 20 20 16 16 9 13 17 17 15 15 12 13 1 15 5 13 4 15 18 9 17 17 13 14 17
27 28 31 29 25 24 23 20 17 11 9 9 16 10 18 15 15 21 21 20 17 18 16 14 12 14 15 15 15 9 2 9 11 2 12 12 4 20 22 15 14 17 20 16 17
28 29 32 30 24 20 23 10 5 6 13 15 6 13 15 24 1 15 24 23 17 19 21 19 15 18 21 20 23 17 14 9 13 16 10 3 15 16 20 17 19 16 16 17 19
29 30 34 29 22 15 13 7 8 8 10 17 23 22 20 6 7 14 16 23 20 22 20 20 22 23 23 23 22 19 13 14 10 17 14 21 22 26 29 26 24 23 18 19 20
29 30 34 25 17 10 11 8 8 11 8 18 22 23 20 13 14 14 21 21 22 24 25 24 25 23 23 23 23 21 19 13 12 15 22 23 22 26 20 21 21 22 21 20 20
29 30 29 23 10 13 7 4 8 8 6 15 20 19 21 20 21 20 20 21 26 26 27 26 25 26 24 23 23 20 17 12 19 19 7 11 8 22 21 17 16 20 22 20 20
28 28 22 14 14 8 9 9 9 8 6 6 11 6 12 22 12 23 27 19 25 26 22 28 28 27 28 25 25 21 19 13 16 10 12 9 9 4 15 13 18 15 21 22 21
27 26 19 6 7 11 12 9 8 6 10 8 10 10 14 18 20 11 22 20 18 25 26 29 22 28 28 25 24 22 19 14 11 15 13 13 12 14 19 23 23 20 18 20 21
27 23 15 12 9 11 10 7 6 9 11 6 12 12 15 16 20 21 18 23 19 19 25 26 31 27 29 28 23 24 18 9 12 12 13 15 13 7 11 16 12 20 20 18 21
26 20 11 12 10 9 9 8 10 11 19 8 4 6 12 18 22 22 19 17 24 26 17 22 24 30 23 32 26 25 22 14 13 13 15 15 16 9 19 9 7 17 11 17 18
26 14 12 14 5 6 7 9 13 15 12 17 5 11 14 16 18 22 25 21 21 24 26 22 30 21 30 27 28 25 20 22 23 20 12 13 18 17 17 13 12 18 18 18 28
17 15 16 5 3 8 7 14 20 11 9 9 11 16 15 17 20 17 16 22 23 23 25 26 21 28 26 29 28 30 15 21 16 21 14 18 5 8 10 14 14 11 9 4 6
7 6 7 4 5 6 9 16 9 9 6 9 14 18 20 19 9 14 21 19 24 18 26 26 24 22 27 27 28 22 22 22 16 17 15 15 11 22 7 14 13 13 14 10 9
14 3 6 4 6 8 11 3 2 11 11 10 13 16 20 16 12 18 6 19 7 1 8 13 9 17 22 19 29 29 23 24 12 20 14 16 15 13 16 18 12 13 11 13 11
5 3 7 4 7 9 4 21 4 7 13 10 13 13 17 17 11 17 8 5 9 5 2 7 14 13 20 22 26 31 23 23 21 19 18 15 16 14 9 12 8 17 17 13 9
5 1 2 6 2 10 14 13 14 2 9 14 14 17 12 12 14 18 6 5 7 8 9 2 14 18 18 18 20 26 29 26 24 17 18 19 20 5 19 14 20 11 12 12 8
4 5 4 7 10 12 11 13 14 11 8 19 8 16 11 14 15 14 16 13 6 2 7 8 15 17 28 27 16 23 23 23 27 24 21 18 19 10 16 9 11 14 11 11 12
6 6 9 6 5 10 8 11 14 14 16 11 18 28 11 16 7 18 10 7 8 10 11 11 12 16 20 22 15 21 24 25 30 21 22 24 18 23 24 20 18 10 10 11 14
14 15 7 6 6 7 10 11 13 13 14 7 15 18 10 18 18 13 13 6 6 6 10 11 11 10 17 18 12 19 17 23 20 19 16 18 14 18 18 17 20 18 17 14 13

GFSSW_925_spd_225.txt.gz
Wind_Speed
21 20 19 18 19 19 20 21 22 22 21 21 21 20 22 25 27 12 5 9 10 11 9 11 15 22 21 4 9 9 4 3 6 6 1 10 11 3 3 16 15 9 19 16 27
22 21 20 19 19 20 21 21 22 23 23 22 20 19 20 23 24 12 17 13 9 14 13 17 16 18 9 7 5 3 3 6 7 12 10 9 10 9 8 12 18 21 19 24 27
23 22 21 20 19 19 20 21 22 22 24 22 20 18 18 18 6 4 6 15 11 9 12 20 23 15 12 3 5 5 4 11 14 24 12 9 9 7 9 4 20 24 20 17 21
24 24 23 21 21 20 20 21 21 23 23 21 20 19 16 6 3 2 5 9 9 8 9 14 13 13 5 7 6 2 7 11 15 12 7 9 14 5 8 4 23 22 20 16 15
25 26 25 24 23 21 21 21 21 23 21 20 20 17 7 4 9 17 7 9 11 13 15 12 16 12 3 8 8 5 5 4 12 16 12 9 17 11 11 9 21 21 18 16 13
25 27 27 27 26 25 23 22 21 21 19 19 17 14 3 7 11 14 6 9 10 14 10 16 9 13 7 7 5 11 7 9 20 15 10 12 4 19 7 12 20 20 15 14 11
26 27 28 30 29 27 25 23 22 20 18 15 13 7 6 17 11 4 11 10 12 16 12 19 24 13 9 10 11 4 6 15 23 11 9 17 6 10 14 13 18 17 14 13 10
28 29 30 31 31 29 27 24 22 20 17 10 8 3 8 14 17 24 22 17 16 17 22 25 25 9 4 9 12 5 3 5 12 21 8 5 4 14 7 13 18 15 13 13 9
29 30 31 33 33 30 29 24 20 18 12 7 6 4 9 13 14 22 18 17 18 19 22 24 14 3 6 6 8 7 6 5 3 9 8 12 9 19 9 3 9 16 14 12 9
29 31 32 35 33 28 29 24 16 13 6 5 12 6 8 9 20 22 19 20 9 9 13 12 5 2 4 5 6 6 9 1 6 3 16 16 8 23 19 5 5 17 14 13 13
31 32 33 37 29 25 28 9 2 2 4 8 6 6 14 18 17 11 19 15 9 9 10 10 7 8 11 13 14 14 10 11 13 14 15 15 15 21 17 11 2 12 15 12 14
31 32 34 36 28 20 13 3 4 8 8 12 21 21 30 30 9 7 16 11 11 13 9 7 14 12 13 15 17 16 13 8 7 21 8 12 14 10 11 6 3 9 15 16 14
31 31 32 33 25 11 8 14 11 13 5 13 21 14 18 13 11 9 7 6 12 15 13 14 13 13 18 17 17 16 11 10 8 15 7 12 11 9 4 2 4 20 14 18 19
31 30 29 33 9 17 11 7 12 15 4 8 8 10 19 9 11 13 13 10 7 15 15 12 13 18 19 18 15 12 16 14 7 14 5 14 5 6 11 16 20 22 17 18 20
29 28 26 23 16 9 16 17 14 9 4 1 7 8 10 21 1 15 23 9 16 13 8 15 18 14 20 16 16 17 17 10 18 8 7 10 7 5 9 14 24 30 25 22 20
28 25 26 8 10 13 17 19 14 2 6 3 5 5 6 10 17 14 9 9 7 12 14 18 9 18 18 17 17 17 17 13 7 5 3 13 14 6 8 17 22 27 29 24 21
28 24 23 15 6 10 15 9 2 4 3 1 6 8 10 7 9 10 10 12 9 6 11 8 15 19 17 17 17 15 9 4 3 2 6 11 6 9 21 19 6 6 23 23 23
29 24 19 19 12 15 13 3 5 10 9 14 15 10 11 10 11 13 14 9 13 10 4 11 13 17 13 14 16 12 9 6 5 3 7 9 6 6 16 19 9 20 17 23 24
29 13 11 11 7 9 2 4 4 6 18 11 15 5 6 5 4 12 15 11 11 13 11 5 17 9 18 19 11 20 13 10 6 8 2 5 8 8 11 12 11 18 7 17 18
16 7 11 12 11 10 2 7 10 16 13 10 10 9 11 14 7 9 8 16 15 12 15 13 12 13 20 15 23 9 6 7 3 7 6 6 3 5 5 2 11 20 24 22 24
4 3 10 6 7 2 4 10 16 14 8 5 9 13 15 14 15 19 7 10 1 17 12 13 9 17 10 15 17 15 12 6 6 3 5 3 6 11 8 3 6 5 8 7 0
7 3 8 3 1 4 3 10 17 22 7 8 7 6 13 14 15 18 10 8 13 8 14 5 11 8 18 17 9 20 13 10 6 9 3 5 6 3 15 17 6 7 15 6 7
5 5 5 9 2 5 5 3 17 15 7 10 9 14 11 9 9 12 6 7 8 10 4 7 3 5 9 9 13 9 18 11 6 7 9 3 4 3 11 12 15 12 16 9 17
3 3 3 1 3 9 9 9 13 13 10 16 12 15 17 13 15 6 7 8 6 6 7 4 3 1 5 7 4 3 12 20 9 8 9 8 5 6 8 14 23 13 4 15 16
3 4 7 5 5 6 10 13 12 14 15 14 8 18 15 7 14 12 12 7 4 2 3 4 3 6 9 14 15 16 17 20 13 8 8 7 4 7 4 17 14 17 16 16 15
4 4 8 6 10 7 11 13 14 15 13 10 10 17 14 9 13 19 22 13 8 5 3 3 3 5 9 13 14 15 18 15 22 9 6 6 11 4 22 23 24 17 18 15 15
12 16 4 7 7 6 7 8 11 12 6 15 11 11 10 10 19 25 24 21 4 5 3 3 1 1 7 7 10 11 8 9 5 15 5 11 5 10 18 19 15 16 15 15 14

GFSSW_925_spd_228.txt.gz
Wind_Speed
22 21 20 19 19 19 19 20 20 20 19 20 19 20 21 25 25 13 6 7 4 13 10 15 13 12 10 4 3 6 4 1 3 2 4 3 10 10 8 15 9 4 14 16 36
24 23 22 21 20 19 19 19 19 20 20 20 18 17 19 23 23 12 15 13 9 16 15 17 11 14 3 6 5 4 4 11 13 6 3 8 7 13 8 14 12 19 13 28 35
24 25 25 24 23 22 21 20 19 19 21 20 18 16 17 17 5 7 8 9 12 13 8 13 3 8 8 5 8 5 5 6 12 5 7 7 10 13 16 12 24 23 20 21 27
24 25 26 26 26 24 23 22 20 19 20 19 18 16 14 4 4 2 7 6 11 11 7 4 7 7 7 7 5 2 8 10 9 8 8 4 13 6 11 7 20 22 19 17 17
25 26 27 27 27 27 25 23 21 19 19 17 17 13 4 1 10 8 10 8 14 15 8 4 6 3 4 2 7 6 0 8 14 7 11 14 4 7 10 13 17 18 18 14 12
26 26 27 28 29 31 28 25 22 20 18 16 15 8 2 5 10 15 15 12 13 17 7 9 10 1 7 1 5 12 21 17 16 14 10 6 5 8 6 9 14 17 16 13 12
27 27 27 28 30 33 30 26 23 20 18 16 11 3 2 14 5 4 3 8 13 14 5 16 10 2 7 7 9 14 13 7 4 8 6 8 6 6 10 13 10 15 15 13 13
27 28 29 29 32 33 30 26 23 18 15 11 5 2 7 12 12 16 19 24 19 21 19 19 15 4 4 4 6 12 4 5 3 3 1 6 4 8 5 9 7 15 15 14 12
28 29 31 31 34 32 31 26 22 15 7 4 2 3 10 10 7 24 24 13 14 22 21 18 7 4 5 3 5 5 2 6 3 1 2 5 6 6 6 4 10 12 16 14 9
31 30 31 32 34 33 30 24 9 2 2 1 4 3 6 5 5 8 19 20 7 2 6 4 2 1 4 5 3 3 4 5 6 7 5 2 3 15 15 14 15 12 13 14 13
32 31 32 32 33 30 25 6 5 5 2 7 5 5 13 12 15 10 16 7 2 2 4 5 2 5 11 6 7 6 4 4 3 4 3 5 1 1 17 13 9 7 8 12 13
32 31 32 33 35 18 9 3 6 6 8 9 15 15 31 9 6 9 11 7 5 7 4 2 7 9 10 6 8 9 1 2 3 8 1 2 7 6 8 8 11 9 8 12 11
31 31 31 31 23 5 18 10 16 18 3 9 8 8 9 11 9 13 6 5 5 7 6 7 5 9 11 8 10 12 5 7 6 10 2 5 6 6 4 5 9 7 7 5 15
28 27 28 33 3 19 9 22 25 17 4 8 4 8 7 6 6 10 11 7 4 11 6 7 8 9 9 10 9 7 7 7 13 10 4 7 3 4 7 8 9 9 13 9 10
27 24 24 18 16 8 13 23 23 4 3 4 3 3 5 10 3 7 10 4 8 5 8 9 9 7 14 12 8 15 7 8 12 6 4 3 1 5 5 8 13 10 10 10 10
26 24 24 7 12 10 18 23 8 5 5 5 2 6 6 6 6 2 3 5 4 4 3 9 4 7 8 10 7 12 6 0 5 5 3 8 5 5 6 19 17 15 14 13 10
28 24 21 14 5 12 19 5 5 2 7 9 6 5 4 6 5 6 3 3 7 4 3 3 6 6 5 4 7 2 6 3 1 2 6 8 5 13 18 18 19 22 22 16 10
28 19 9 13 11 9 10 5 3 7 7 10 7 10 9 5 6 8 5 3 3 5 3 7 10 8 3 11 7 5 9 6 6 5 11 9 7 9 22 13 15 19 20 20 16
24 11 7 3 3 3 5 4 5 4 7 8 8 7 8 8 6 3 7 8 9 9 9 5 5 2 11 8 6 5 5 9 4 1 2 4 6 5 3 9 8 16 10 17 20
16 9 5 6 8 5 5 3 4 4 9 5 6 4 5 7 6 4 3 5 6 12 8 9 2 6 10 4 7 9 6 1 2 5 5 4 2 5 2 2 3 10 10 18 21
6 4 2 10 10 4 3 6 6 10 11 2 5 4 4 4 3 5 4 7 7 5 10 7 6 9 4 7 8 2 3 2 4 4 6 3 6 7 10 6 9 9 8 5 6
5 3 1 3 3 1 2 3 5 14 13 8 8 8 6 6 5 3 4 4 7 4 2 7 7 6 15 6 4 4 7 8 5 6 2 5 5 6 11 12 17 14 10 11 3
2 3 3 1 2 4 7 8 6 15 15 9 11 8 6 7 6 6 7 7 6 3 3 1 2 2 9 6 2 5 5 6 4 3 9 7 5 3 6 23 27 24 15 10 2
2 4 4 4 1 5 4 6 9 11 8 10 6 4 7 8 6 5 8 6 12 1 3 3 4 6 8 6 3 2 4 3 8 5 4 7 5 9 5 11 16 21 18 14 15
3 2 1 3 5 6 6 4 8 9 8 11 7 10 6 5 8 7 7 11 15 7 1 4 2 3 5 5 2 3 4 7 3 8 11 8 8 1 6 11 9 14 15 18 16
2 3 4 4 3 8 6 6 8 8 5 6 6 9 4 3 4 5 6 3 7 11 7 3 2 1 4 3 5 4 15 12 4 4 7 16 13 8 14 18 15 13 13 16 14
7 5 4 5 4 5 2 4 5 3 5 6 6 4 4 4 6 14 13 12 13 3 6 2 2 3 4 3 5 6 13 2 12 15 3 9 9 16 16 18 12 11 13 12 12

GFSSW_925_spd_231.txt.gz
Wind_Speed
22 22 22 22 21 20 19 18 18 18 18 19 19 19 21 23 22 11 5 3 6 21 20 22 10 7 4 1 3 6 1 1 4 1 3 9 4 3 6 12 4 2 9 17 26
21 22 23 23 23 22 20 19 18 17 18 19 17 17 19 22 19 9 9 7 8 22 27 19 10 12 3 4 3 3 2 5 7 2 2 4 7 4 3 11 10 13 17 29 27
22 22 23 23 23 23 23 21 19 17 17 18 17 16 16 15 5 5 6 9 14 22 16 21 15 8 6 4 5 5 5 4 5 6 3 7 12 6 11 1 15 19 22 23 24
23 23 23 24 24 25 25 23 20 17 16 16 15 15 13 5 4 2 7 7 12 21 14 10 11 5 4 5 7 3 4 5 6 7 4 3 3 6 7 5 8 16 23 21 19
24 24 25 26 26 28 28 24 20 17 15 15 14 12 5 2 9 3 4 1 14 18 7 6 6 5 4 5 6 3 6 5 11 12 11 9 7 6 11 14 9 18 20 19 16
25 26 27 28 28 30 30 26 20 17 14 12 11 6 1 4 6 7 9 7 12 17 5 8 6 7 4 3 4 5 12 10 9 11 8 13 7 12 5 7 11 18 18 17 17
27 27 28 28 30 32 31 28 21 17 12 10 6 2 0 14 2 4 3 3 13 12 4 9 6 3 3 4 11 14 10 6 3 10 5 10 5 10 10 5 12 14 14 15 14
28 29 29 30 31 32 33 26 22 16 9 5 3 5 7 11 12 23 22 17 17 16 17 17 8 4 4 2 5 4 5 3 5 4 4 4 4 9 12 11 15 16 13 13 10
29 30 30 31 34 35 31 26 16 6 2 5 5 4 9 6 6 20 20 10 8 14 17 10 6 4 2 6 3 5 4 3 3 5 4 2 2 7 10 9 9 14 15 12 11
29 30 31 31 32 35 25 12 10 7 7 4 1 2 6 1 4 10 12 22 5 1 1 5 2 1 3 4 3 4 3 4 5 4 3 4 3 4 10 11 13 9 13 12 12
29 29 29 30 30 26 22 3 5 4 2 6 6 6 6 9 12 4 8 10 2 3 5 2 3 5 8 5 5 3 1 6 2 5 3 4 6 10 10 5 6 7 11 14 12
28 28 28 28 30 10 14 4 1 7 9 10 11 11 19 3 5 4 4 7 7 7 5 2 4 9 4 4 4 3 3 4 1 5 3 6 7 6 10 10 8 9 10 14 9
27 27 27 26 16 7 11 5 21 11 2 8 6 6 6 11 9 7 5 4 5 7 6 7 6 8 5 3 4 3 4 3 2 3 2 4 4 6 8 7 13 13 12 13 15
27 25 24 25 2 16 7 18 21 3 5 8 4 6 5 9 5 8 7 5 2 12 8 5 5 5 5 5 7 5 7 8 6 5 4 2 3 5 7 14 14 16 9 13 14
26 24 21 16 12 5 8 20 15 4 3 3 3 1 1 8 4 6 6 5 8 6 7 8 7 8 9 6 7 10 7 6 6 5 3 1 3 6 3 8 10 13 13 12 14
26 22 20 5 8 7 14 17 2 5 5 7 4 7 3 4 3 2 5 4 4 4 3 8 2 6 9 7 7 3 2 2 4 3 2 6 5 6 6 13 16 14 17 17 14
24 18 14 8 3 8 13 4 5 3 6 8 9 10 6 2 4 3 5 4 6 5 1 0 4 4 2 4 2 5 5 2 2 0 6 6 3 13 8 6 13 17 14 16 16
24 12 7 8 6 7 4 5 3 4 5 8 6 8 6 8 3 3 6 4 1 5 3 7 8 7 3 8 7 6 9 6 6 4 4 6 6 8 8 15 13 16 15 12 16
18 7 3 3 3 1 5 4 5 3 5 7 10 6 7 7 3 5 2 4 8 9 8 5 5 4 7 4 11 4 5 9 5 1 2 5 7 9 5 9 11 15 14 17 17
10 8 4 1 4 6 5 3 4 3 8 2 4 3 7 8 8 7 3 3 4 10 7 9 1 4 4 5 3 7 6 4 2 6 5 5 5 5 5 2 3 8 15 13 13
4 4 11 5 3 5 2 5 2 8 9 7 6 4 4 5 4 5 3 4 4 6 7 5 5 5 4 4 8 3 3 3 5 5 6 2 7 7 8 8 7 8 8 6 8
3 3 8 5 4 1 2 4 7 7 10 7 4 5 3 5 4 5 4 4 10 3 3 2 6 5 9 2 4 8 9 8 5 5 2 4 7 5 3 4 11 8 9 6 8
2 2 7 1 2 3 4 5 6 10 10 8 7 5 4 5 3 3 7 7 15 9 3 2 1 1 9 6 3 5 5 5 4 3 8 5 6 8 6 6 6 15 8 7 5
3 3 4 5 1 0 3 5 6 6 4 5 3 5 3 4 3 6 7 6 16 8 10 5 3 6 10 7 5 3 4 5 6 4 5 7 5 3 8 7 4 9 8 7 5
4 0 2 3 5 4 4 3 5 8 6 9 6 4 4 4 6 3 4 8 8 12 11 4 2 2 3 4 4 4 4 1 5 4 7 8 10 4 12 14 9 9 13 13 11
2 3 4 2 1 4 5 4 3 4 3 5 4 5 1 1 5 5 6 2 5 9 9 7 3 2 1 3 6 5 9 5 8 5 3 7 2 0 7 11 16 12 12 14 12
5 2 3 5 3 3 2 1 2 2 3 3 3 2 6 6 3 8 9 9 10 5 4 4 2 1 4 3 4 5 11 5 9 11 6 5 6 13 10 13 11 14 13 14 13

GFSSW_925_spd_234.txt.gz
Wind_Speed
20 19 20 21 20 20 20 18 18 17 16 17 17 18 20 21 20 11 4 2 11 25 25 21 8 7 1 1 2 1 4 3 3 2 5 4 3 1 4 7 1 3 6 12 23
20 21 21 21 21 21 22 21 18 17 16 17 17 17 17 21 16 6 5 8 16 29 25 19 9 10 1 1 1 2 3 5 3 4 3 13 5 1 5 4 8 13 16 24 23
21 21 21 22 22 22 23 22 19 17 15 15 16 16 16 15 4 2 4 12 19 28 22 14 14 5 2 3 5 4 4 4 4 5 5 7 11 6 10 5 1 16 15 17 19
21 21 22 22 23 23 25 23 19 16 14 14 14 15 13 6 4 3 7 15 22 17 19 12 7 4 3 4 6 4 5 5 7 6 6 7 5 5 7 3 1 12 17 15 13
23 23 23 24 24 24 25 24 20 15 13 12 12 12 5 2 8 1 5 16 24 17 12 7 6 3 3 3 5 2 4 4 4 8 6 11 8 8 2 4 11 14 15 13 12
25 25 25 25 26 27 26 26 19 13 11 9 7 6 1 4 4 3 5 16 18 19 7 6 6 8 5 1 1 2 8 7 5 7 5 7 3 1 2 2 15 16 14 13 12
25 26 27 27 28 29 30 27 17 13 10 7 4 1 1 12 3 9 8 8 13 18 4 8 10 3 2 3 6 7 6 5 3 2 4 10 2 5 10 5 14 16 13 13 13
27 27 27 27 29 29 30 24 17 11 6 4 4 3 7 6 12 22 20 20 12 17 9 8 5 2 2 5 1 3 4 3 3 3 4 3 4 10 10 11 14 15 14 13 10
27 27 27 28 28 30 24 15 8 6 7 9 5 3 9 9 6 8 14 8 12 14 12 6 2 3 4 5 3 5 2 2 2 5 6 4 4 5 8 8 8 16 15 14 12
27 26 27 26 26 26 22 7 11 10 10 5 2 2 6 1 5 10 9 13 3 6 3 4 3 3 3 3 4 4 3 1 4 4 4 7 5 5 12 10 10 12 13 14 14
26 26 26 26 25 17 18 1 5 4 0 5 5 5 5 11 8 3 2 9 5 3 6 3 4 6 9 6 3 4 4 3 2 4 4 7 3 10 13 10 10 7 14 13 13
26 26 25 23 23 8 9 7 6 5 8 8 11 10 12 3 5 5 5 6 6 6 5 5 5 9 7 5 4 3 1 1 1 4 3 3 6 4 11 14 12 12 9 15 11
28 26 24 21 11 7 4 5 13 2 2 7 5 4 5 11 9 8 7 5 5 7 7 7 6 6 7 5 5 2 3 2 2 4 2 5 5 5 6 9 9 9 8 7 13
29 25 22 21 2 12 2 13 18 6 5 7 4 4 3 2 5 11 9 5 2 11 9 5 5 6 6 5 6 3 7 3 7 3 2 1 4 5 8 15 11 14 14 14 13
29 22 19 15 10 3 6 17 9 3 4 10 3 0 1 5 4 4 6 5 8 6 7 8 8 7 4 6 7 6 7 5 4 3 2 2 2 6 9 11 19 19 17 17 16
21 22 17 5 6 4 13 12 2 5 4 7 5 5 3 4 5 2 3 5 4 5 3 7 2 6 10 5 6 3 4 7 5 3 2 6 5 5 6 14 13 14 15 17 16
24 16 8 3 2 10 14 3 5 4 6 9 5 7 2 3 2 3 5 5 6 5 2 2 1 1 3 5 3 5 6 2 2 1 5 3 2 10 4 6 10 19 18 18 17
19 8 6 4 5 9 5 5 3 2 5 5 5 7 6 8 3 6 3 3 4 6 3 6 4 7 3 6 7 7 9 5 6 4 4 3 6 6 9 8 8 12 20 17 18
10 4 4 7 4 5 5 5 2 4 5 7 9 6 7 6 3 3 2 4 6 7 7 5 6 4 4 5 9 4 4 7 6 2 1 4 7 9 8 6 7 11 16 20 19
5 3 7 5 4 5 5 2 1 3 6 2 4 6 7 8 8 7 5 2 4 8 1 8 1 5 5 4 2 9 8 4 2 7 5 4 4 6 9 8 3 8 15 16 17
3 4 12 1 5 5 3 2 3 6 8 7 5 5 4 4 3 5 5 4 8 7 4 5 3 4 2 6 10 2 3 4 5 4 6 1 6 7 8 5 5 7 8 13 16
3 3 6 4 4 1 2 2 6 6 6 7 4 5 4 4 4 6 4 4 9 4 1 1 5 5 7 2 3 7 9 7 5 4 1 4 7 4 8 5 6 6 8 9 13
3 2 5 2 3 3 3 4 3 8 6 7 6 5 4 5 4 4 5 4 13 8 4 3 0 2 7 6 3 3 5 6 5 3 7 6 6 4 7 5 6 3 6 6 8
3 2 4 4 1 3 3 3 6 5 3 3 4 4 4 4 2 6 6 4 11 6 12 2 2 6 7 7 5 3 5 5 7 5 5 6 8 4 3 4 5 6 6 7 8
4 0 1 2 4 4 3 2 4 6 3 7 4 3 3 4 5 3 4 7 4 10 9 4 1 4 6 6 3 4 2 7 6 5 9 7 9 9 5 2 1 8 7 9 10
3 3 4 2 2 3 4 1 1 4 1 3 1 3 3 3 4 4 4 2 4 7 8 7 1 2 2 1 5 5 5 7 6 2 4 3 6 1 6 8 8 8 6 11 11
3 2 4 4 3 3 2 2 1 1 2 2 3 1 4 5 6 8 10 9 10 4 4 5 4 4 3 4 5 3 3 6 7 6 3 3 4 3 10 11 9 10 10 9 10

GFSSW_925_spd_240.txt.gz
Wind_Speed
15 15 15 15 15 15 16 16 15 14 14 14 15 16 17 18 16 5 6 2 8 23 16 11 10 10 5 2 0 1 3 5 5 7 8 11 9 7 9 12 4 4 13 23 24
16 16 16 16 16 16 16 16 16 14 14 13 13 14 15 18 10 10 6 6 9 25 16 12 9 9 1 1 2 1 0 5 2 5 11 8 7 13 10 10 7 11 20 25 23
16 17 17 16 16 17 17 17 17 16 13 12 12 12 13 12 8 2 4 9 14 22 12 9 7 6 3 2 4 1 3 5 6 6 12 10 7 7 9 3 10 17 22 21 22
17 17 17 17 17 17 18 19 19 16 12 11 10 10 10 3 5 3 4 12 21 17 12 10 8 7 2 4 4 6 4 2 3 6 5 4 6 6 1 6 10 19 21 20 17
17 17 17 17 17 18 19 21 18 15 11 8 7 8 3 7 3 5 5 16 22 13 15 11 7 6 4 3 3 7 7 5 10 7 7 7 7 7 7 9 16 18 19 18 15
18 18 18 18 18 18 21 19 19 15 10 7 4 4 5 11 2 2 10 20 17 14 13 10 3 5 6 3 5 4 6 9 9 9 8 7 7 5 7 14 16 17 18 16 14
18 18 18 18 18 17 19 20 14 11 8 5 3 1 6 4 2 5 11 16 14 14 10 10 8 8 8 4 3 9 9 8 7 9 5 6 7 6 12 16 15 18 17 16 14
18 18 19 19 17 18 16 12 11 9 1 3 3 2 5 2 3 6 11 13 14 11 11 5 8 10 9 6 7 6 8 10 11 9 6 7 7 9 14 17 17 18 15 15 15
18 19 19 17 15 15 12 6 8 7 5 5 1 5 2 2 7 13 12 10 13 9 12 6 9 11 7 13 9 9 6 5 6 9 5 9 3 11 14 16 18 17 17 15 15
20 21 18 15 14 9 7 1 3 2 2 1 2 5 5 2 1 5 12 14 9 11 10 10 8 11 12 12 12 11 9 6 3 8 8 8 7 10 14 16 17 18 17 16 16
22 19 15 13 11 6 4 5 4 6 8 9 9 11 7 6 6 9 11 16 14 16 16 17 13 16 19 18 10 6 9 7 5 2 7 8 7 9 13 15 17 17 18 18 17
23 17 14 12 4 4 6 4 6 5 7 5 8 10 15 9 6 11 11 16 16 19 21 15 20 20 17 16 15 10 10 9 5 5 6 3 8 10 14 17 18 19 19 19 18
21 16 13 10 3 4 6 6 7 3 6 1 2 4 3 7 8 11 15 20 21 24 26 23 23 21 18 18 15 17 14 9 7 5 10 7 14 10 12 15 16 17 18 18 19
20 15 10 3 3 1 3 6 10 4 5 4 2 3 1 4 7 17 16 13 16 26 24 24 23 23 20 20 19 19 16 9 8 8 6 2 1 13 13 16 19 20 19 20 21
18 13 9 6 3 1 4 9 3 4 5 5 2 2 7 7 8 9 18 13 20 20 22 24 23 20 22 22 20 18 9 12 12 12 11 12 7 5 14 14 19 22 23 22 22
12 10 8 5 3 4 8 6 4 6 1 3 3 7 9 5 7 2 11 13 12 21 22 24 18 18 24 22 21 19 5 9 11 13 13 15 7 7 11 14 18 20 23 22 22
6 9 11 6 5 8 7 5 5 4 5 7 9 12 10 4 5 9 13 19 13 18 20 24 22 18 17 22 21 23 17 10 12 12 13 6 7 13 1 5 9 21 24 24 22
1 4 6 5 6 8 5 5 2 5 7 12 10 13 4 8 1 8 9 18 21 16 17 19 25 23 18 26 22 23 23 15 18 13 14 13 7 6 3 2 8 13 20 23 23
3 1 2 6 8 6 6 3 5 6 9 10 14 9 2 5 5 5 12 15 16 16 20 21 24 25 17 20 23 23 24 23 22 17 13 12 14 9 10 5 8 12 15 21 24
2 3 4 9 8 9 1 5 2 6 9 6 8 5 11 11 10 7 9 7 5 3 9 9 14 16 22 16 19 21 18 20 16 23 19 17 16 8 12 9 6 8 13 18 23
4 4 5 8 5 3 3 5 2 6 9 8 8 11 10 10 13 7 5 8 10 5 7 12 12 16 14 21 23 15 15 18 18 19 16 16 16 12 14 2 4 4 8 15 19
4 2 8 5 3 1 3 3 1 6 8 4 7 9 9 11 10 7 4 9 13 8 8 15 10 14 21 20 21 25 24 22 16 23 18 15 14 8 8 1 5 5 3 8 18
2 2 4 7 2 2 4 3 2 6 6 7 6 6 8 10 7 5 6 6 12 8 7 0 12 13 18 11 12 19 23 25 23 17 20 17 17 12 9 5 6 6 5 3 10
3 2 3 3 1 4 1 1 1 2 1 6 7 8 10 10 5 9 10 5 13 7 10 4 14 16 15 18 16 20 23 24 24 18 19 20 22 15 9 1 6 7 5 3 7
4 3 3 1 4 3 3 2 4 4 1 3 4 5 8 6 10 9 8 14 7 4 9 5 11 16 21 14 13 20 20 25 25 25 22 18 22 19 14 3 7 6 6 6 5
3 3 2 3 1 3 2 1 3 4 4 3 6 9 8 10 9 13 14 11 8 6 10 8 7 7 15 18 15 16 21 19 25 25 22 22 16 2 9 6 5 5 5 7 7
2 0 4 4 2 4 2 2 2 5 1 6 8 10 10 9 11 15 16 16 16 16 10 9 6 7 14 14 17 20 19 18 15 16 19 22 20 7 7 9 7 5 9 8 7

GFSSW_925_spd_243.txt.gz
Wind_Speed
13 13 14 14 14 14 14 15 16 16 16 16 15 15 16 20 17 8 10 7 7 19 14 8 11 6 4 2 4 6 3 2 9 3 9 9 11 9 11 12 8 3 20 24 25
13 13 14 14 14 15 15 16 16 17 16 15 14 14 16 18 16 16 6 6 8 21 12 9 10 11 3 2 4 4 2 6 1 2 11 7 10 14 11 11 10 16 24 27 24
13 13 14 14 14 15 16 16 18 17 15 13 13 12 13 14 14 5 7 9 11 19 11 5 7 9 2 6 4 3 1 7 3 7 8 6 10 4 10 9 14 17 22 22 23
14 14 14 15 15 15 16 18 19 17 14 11 11 10 11 6 7 8 1 10 13 17 16 6 10 2 16 6 11 8 3 3 9 11 8 6 3 3 9 8 13 18 21 20 19
15 16 16 16 16 16 16 20 18 18 13 10 8 8 6 9 14 4 2 12 17 17 15 13 16 10 4 10 11 6 10 10 7 6 10 8 4 7 8 11 16 19 19 18 17
17 18 18 17 16 16 18 18 18 15 10 7 6 5 8 15 3 1 4 14 17 19 16 16 9 11 11 5 10 15 11 10 10 9 8 9 6 7 8 15 17 17 18 17 16
18 18 19 17 16 15 17 17 14 12 7 4 4 5 11 10 1 4 8 14 17 17 14 13 11 11 10 8 2 7 10 9 9 10 11 9 10 8 13 15 16 16 16 15 15
17 18 19 16 15 16 15 12 11 10 4 1 3 6 9 1 5 6 13 13 16 13 15 7 8 14 16 2 7 13 11 12 12 12 8 9 6 14 15 16 17 18 16 14 15
18 18 17 14 13 13 13 8 8 6 3 2 5 8 7 0 8 14 14 15 15 13 12 11 11 15 13 14 11 11 6 8 8 8 10 11 9 15 14 16 18 19 17 16 15
21 19 14 12 12 10 12 9 9 7 4 6 8 7 6 2 2 6 15 16 12 13 13 13 10 14 16 15 14 18 16 14 7 12 7 9 6 15 16 18 19 19 18 17 16
19 15 12 10 8 7 13 7 5 7 14 12 8 12 7 2 7 12 13 15 15 15 18 18 16 19 21 21 21 9 14 10 7 6 9 12 8 14 15 16 17 16 19 18 18
19 14 12 10 2 4 12 5 7 6 8 8 5 7 9 11 8 12 16 14 19 21 21 21 23 23 21 20 17 6 15 9 7 11 10 9 11 14 18 15 18 17 21 20 19
17 12 9 4 2 3 6 6 6 7 7 9 2 5 3 5 11 14 16 20 18 24 25 26 24 24 22 22 19 20 19 12 7 7 13 12 13 14 17 17 24 25 20 20 21
14 10 6 3 3 3 1 6 8 4 6 8 5 4 6 4 10 17 17 18 24 26 27 26 27 24 24 23 21 21 18 16 5 9 11 12 7 9 16 18 20 23 20 20 21
11 9 5 4 8 4 6 7 8 7 4 6 3 4 7 9 15 11 21 17 23 25 22 28 28 28 25 26 22 19 16 20 16 13 16 19 7 9 17 17 20 20 25 23 24
7 8 5 2 3 5 8 9 7 8 4 3 4 8 12 11 9 13 8 17 17 22 26 29 24 26 27 23 23 21 21 13 15 15 15 18 13 11 17 17 19 21 21 23 23
3 4 4 5 7 10 10 11 7 5 4 5 10 12 15 16 8 13 16 17 18 17 25 26 32 25 27 23 20 26 20 14 13 13 14 19 14 11 7 5 13 21 22 23 24
2 3 5 5 8 9 12 11 3 6 5 11 12 15 18 7 16 7 15 18 23 27 18 22 22 32 23 23 25 26 24 17 20 14 16 18 9 8 5 3 13 16 22 23 22
4 5 7 4 8 8 10 6 6 5 6 8 13 12 16 1 3 15 15 18 18 23 25 21 27 21 25 24 24 25 25 25 24 18 13 15 18 10 8 9 9 11 20 24 24
7 8 3 5 8 12 10 4 1 4 8 7 12 7 11 13 11 18 14 6 10 18 25 22 21 28 30 22 25 28 21 21 18 23 21 17 12 13 19 12 11 14 14 18 22
9 5 6 4 10 10 5 5 0 4 7 6 11 12 14 14 11 20 18 8 11 14 13 15 19 21 24 25 26 21 23 18 21 20 17 16 13 9 5 14 11 8 11 16 19
17 6 5 4 9 1 2 2 3 3 2 7 7 9 14 12 15 19 18 12 12 13 15 18 18 15 20 19 25 23 24 25 15 24 17 17 12 9 19 14 7 6 6 7 18
6 4 4 8 6 2 6 4 4 7 6 7 8 6 11 14 16 17 15 4 7 14 11 13 16 15 21 21 16 21 26 25 23 19 23 16 16 11 10 10 8 9 4 4 11
5 3 5 2 4 7 1 5 5 7 10 5 11 9 11 13 14 16 17 10 8 15 8 8 16 16 17 18 18 25 24 28 25 19 19 20 19 14 15 16 9 10 7 3 3
2 4 4 3 3 5 4 4 7 3 2 9 9 8 8 13 14 14 18 8 14 5 8 10 16 20 26 26 23 21 25 27 25 25 24 21 20 19 14 13 15 11 9 7 5
6 4 3 1 2 6 6 3 7 5 7 9 6 11 12 13 13 16 15 13 14 14 7 16 12 16 21 21 26 22 19 26 29 28 25 25 21 16 8 18 15 10 12 15 13
4 2 6 7 4 6 3 4 5 5 2 4 9 11 12 11 13 16 17 18 18 17 15 14 14 15 15 17 21 24 22 18 20 26 23 21 21 13 18 16 12 10 11 10 9

GFSSW_925_spd_249.txt.gz
Wind_Speed
15 16 16 16 16 16 17 17 18 19 20 20 19 18 18 19 20 13 6 7 6 11 8 5 11 18 19 5 8 12 4 5 4 6 9 15 16 15 22 22 16 7 18 18 34
16 17 17 17 17 17 17 17 18 20 19 18 18 17 16 19 18 13 14 11 3 11 7 12 2 5 2 5 3 5 3 6 6 14 7 13 14 14 15 20 20 20 21 26 27
18 18 18 17 17 17 17 17 19 19 20 18 15 14 14 15 5 2 8 13 6 6 8 2 9 3 5 4 5 7 7 7 17 23 24 14 13 4 15 20 21 23 18 17 26
18 19 18 18 17 17 17 17 18 19 17 16 14 12 12 5 3 0 2 8 6 6 5 4 4 3 2 2 3 3 13 23 15 22 5 6 7 4 15 21 22 19 18 12 15
19 19 19 19 17 17 17 18 18 16 16 14 11 11 3 3 8 5 1 6 8 10 11 8 8 3 3 4 4 5 5 7 7 8 7 15 12 9 17 22 21 18 18 15 11
19 20 20 19 17 16 16 16 16 14 15 11 8 8 2 3 4 3 3 7 7 11 9 15 13 10 4 10 3 5 6 4 8 8 16 15 12 6 14 20 20 16 16 14 12
21 21 20 17 16 16 16 15 15 13 12 9 7 5 5 10 5 3 9 6 7 14 10 22 24 10 8 7 3 2 4 8 9 6 6 14 7 6 10 18 18 13 14 12 15
22 21 18 16 16 16 16 15 15 11 10 7 6 1 6 4 6 10 10 15 11 13 20 23 26 11 5 8 7 4 8 2 7 11 7 7 4 8 8 17 15 13 14 12 11
23 22 18 17 16 16 15 16 15 11 8 8 5 2 7 4 6 10 15 15 20 16 19 23 12 6 7 7 8 2 6 4 8 14 6 4 6 16 13 16 16 14 13 12 11
24 21 18 17 17 16 16 20 13 8 5 4 9 5 8 1 4 7 9 17 10 9 10 10 3 5 6 5 7 6 6 5 4 7 18 10 8 13 16 16 15 11 10 12 13
23 21 19 17 14 15 21 6 4 2 5 8 11 7 7 18 7 4 7 11 8 8 6 6 4 8 11 14 16 15 10 6 9 9 7 18 11 19 19 17 16 14 9 13 13
22 20 19 16 12 14 15 4 7 6 7 14 13 5 11 3 5 9 6 3 4 7 8 8 11 11 16 16 18 16 8 8 7 13 10 15 18 20 20 20 20 17 13 14 15
21 20 19 16 14 14 7 9 8 12 3 6 1 2 1 2 5 6 3 7 7 6 10 9 9 14 18 17 18 17 8 5 4 6 11 3 8 19 18 17 20 19 15 16 18
19 17 16 16 12 12 4 11 12 11 2 6 5 2 4 7 6 7 9 5 4 10 10 9 13 19 19 15 15 15 18 14 13 9 8 12 7 19 22 21 24 21 16 18 17
18 15 14 16 17 10 11 12 10 7 1 4 4 6 5 4 6 2 11 2 8 9 6 9 12 15 20 20 14 14 19 16 10 11 6 11 2 7 23 22 24 22 18 17 17
17 14 15 9 12 12 14 12 8 1 2 2 6 7 8 9 10 6 3 6 5 6 12 10 13 14 14 19 21 17 18 17 14 5 6 15 8 8 19 23 22 21 21 21 16
18 14 16 16 6 12 12 7 2 3 0 5 6 8 9 9 9 3 6 8 5 4 6 10 17 17 17 18 22 18 13 8 8 5 5 14 10 16 18 22 25 28 27 25 19
19 17 16 19 10 13 12 3 4 8 11 10 8 11 9 6 4 8 9 6 10 7 9 7 11 10 17 15 14 17 10 8 10 7 6 12 7 15 15 22 30 28 27 25 24
17 14 12 15 13 6 3 3 3 7 10 8 11 7 7 12 9 4 5 6 7 10 5 5 11 23 17 18 18 23 15 14 10 13 10 7 8 17 12 13 20 25 24 26 26
11 10 20 16 5 7 1 6 4 6 8 6 7 8 9 10 10 11 7 7 9 13 7 5 8 14 19 10 19 16 16 11 8 11 14 6 4 5 7 15 14 23 29 28 26
4 3 5 12 5 1 4 6 5 9 7 5 9 7 9 8 9 10 8 10 8 11 9 8 4 15 17 6 12 15 14 14 9 7 10 6 7 10 10 2 6 21 27 26 26
6 3 12 5 1 4 5 2 1 3 4 2 0 6 7 10 5 9 12 10 7 7 7 5 5 5 21 20 18 17 13 13 11 9 4 5 16 3 6 9 7 6 28 25 27
3 5 8 6 3 4 4 1 4 1 6 6 6 7 9 8 7 7 10 11 13 5 3 6 4 6 16 8 7 5 15 18 10 6 16 5 6 3 12 10 5 12 9 9 14
3 3 0 2 5 5 5 6 7 7 5 2 2 7 8 7 5 7 11 13 14 7 8 6 3 7 10 19 17 21 24 22 21 6 11 14 15 5 12 19 10 22 20 17 14
3 3 5 4 5 7 7 8 7 7 4 4 2 7 5 5 8 9 13 10 17 3 7 1 7 10 16 19 16 18 22 20 17 16 10 11 6 5 13 9 12 13 24 17 15
3 4 9 9 10 2 5 6 10 3 7 6 5 9 8 6 6 8 9 8 5 10 9 11 8 11 17 18 18 20 25 18 16 17 9 4 4 17 19 16 19 16 18 20 18
10 14 4 7 7 8 2 2 7 6 3 2 7 6 7 9 8 8 9 10 13 14 11 7 7 6 11 13 18 11 11 19 20 19 14 7 8 19 12 19 10 7 13 13 12

GFSSW_925_spd_252.txt.gz
Wind_Speed
16 16 15 16 16 17 17 16 17 19 19 18 17 16 15 17 17 9 5 3 8 13 9 11 8 8 5 3 10 7 3 4 8 7 12 21 19 11 9 22 13 3 13 25 33
16 16 15 15 15 16 17 17 17 18 19 18 16 14 13 16 15 11 10 4 6 14 10 10 6 12 1 3 5 4 2 4 4 9 8 12 22 17 12 15 16 15 20 35 36
17 17 16 16 15 15 15 15 17 18 17 17 15 12 10 11 3 5 5 12 8 10 4 8 7 4 5 5 6 5 5 7 10 17 14 11 14 12 20 17 22 23 25 23 29
18 19 18 17 16 15 15 15 16 16 16 16 14 11 11 3 4 2 3 8 11 10 5 3 3 3 2 3 6 7 7 4 9 8 7 8 8 16 18 12 20 19 24 24 20
19 20 20 18 16 14 14 15 15 15 15 14 11 11 3 2 7 9 4 9 13 10 6 3 7 3 2 3 5 6 15 10 9 15 18 18 4 10 16 21 18 16 18 20 18
20 20 19 17 15 14 14 14 15 14 14 14 9 8 2 1 2 2 3 8 9 10 5 7 4 5 9 8 4 7 13 11 12 18 17 10 12 9 16 20 18 16 12 14 16
21 21 19 16 16 15 14 14 14 14 12 12 9 5 1 8 2 7 7 4 7 12 4 13 10 3 8 6 4 4 6 10 11 7 3 11 5 14 20 21 20 16 14 12 13
22 22 19 17 16 15 15 14 14 12 9 8 8 3 5 6 9 6 7 12 8 13 16 16 18 5 4 5 3 1 4 3 3 7 7 6 4 11 19 20 18 19 15 12 10
23 21 19 18 18 17 15 18 15 8 6 7 4 1 7 10 5 4 4 9 16 12 19 18 7 4 6 4 5 1 3 2 2 12 3 2 3 9 15 18 17 17 15 13 9
23 21 20 19 18 18 19 10 7 1 1 1 4 4 5 2 1 4 4 4 5 5 6 2 4 2 5 5 4 3 4 4 7 10 10 10 6 13 14 17 18 15 11 14 15
23 21 20 18 16 18 21 4 6 4 2 4 5 4 11 8 1 6 11 5 4 5 2 5 4 4 8 8 12 10 10 10 7 10 10 19 11 16 12 16 17 15 8 14 16
23 21 20 18 16 17 12 3 2 5 6 6 10 7 14 0 3 5 3 2 4 2 4 6 4 7 6 10 11 10 7 9 9 10 10 8 12 13 17 21 21 20 12 15 16
23 21 20 18 15 7 11 9 8 9 3 8 6 2 3 3 3 6 5 3 2 1 4 4 7 10 10 9 12 15 4 6 7 4 11 8 6 9 16 14 16 17 15 14 20
23 21 20 22 4 16 4 13 10 8 5 6 2 5 2 3 4 6 8 6 2 7 5 4 6 6 10 7 4 9 13 10 6 3 5 7 5 6 17 18 19 17 16 15 19
23 20 18 17 11 7 10 14 15 3 4 2 2 2 6 2 4 5 6 3 3 5 4 9 5 7 8 6 6 10 16 12 10 6 1 2 1 8 14 19 16 22 21 18 21
23 19 16 11 14 8 21 17 4 5 2 4 3 5 8 8 8 4 3 5 1 2 1 8 4 4 5 12 9 12 12 12 4 4 4 8 7 11 10 27 23 23 22 23 21
23 18 16 14 5 14 23 5 5 4 4 7 4 6 7 6 7 4 4 10 6 6 6 7 6 7 2 8 12 3 6 5 4 1 6 11 8 11 18 22 26 29 28 26 22
20 14 13 18 14 22 12 5 6 2 5 3 4 8 4 8 5 9 7 5 9 5 3 3 7 5 6 1 9 12 8 5 5 3 7 6 7 14 12 17 25 29 31 24 24
17 8 9 10 10 7 5 4 3 2 1 3 6 6 6 7 5 10 7 5 4 5 3 4 4 9 8 6 2 9 3 9 5 6 5 8 8 11 8 9 22 25 23 25 25
14 7 9 8 10 1 5 4 2 5 4 5 4 3 5 8 7 6 6 4 5 4 4 3 5 5 10 5 6 1 6 4 2 5 12 5 6 6 7 6 19 23 24 24 24
7 3 4 11 6 5 2 5 1 5 6 4 3 3 4 4 3 4 4 7 4 6 4 1 3 7 5 2 3 10 7 5 4 6 9 11 9 8 9 4 13 15 21 25 24
6 2 3 12 3 1 2 5 3 4 5 5 4 3 3 3 4 4 3 4 9 6 7 2 3 2 8 18 10 8 3 2 5 9 6 4 9 8 7 10 9 10 15 18 21
2 3 5 4 2 2 6 4 1 3 2 3 3 4 3 2 2 2 4 7 10 8 4 5 3 5 10 8 7 5 12 8 9 3 8 8 13 2 8 10 13 12 11 11 10
2 3 4 4 1 3 3 4 4 5 3 4 4 3 2 4 3 3 6 5 7 5 10 2 1 4 4 8 9 9 14 12 5 5 9 9 12 7 7 7 10 19 13 14 13
2 2 2 3 5 5 1 2 3 3 4 6 4 6 4 2 5 5 6 7 10 6 7 4 4 2 8 11 8 11 14 14 12 13 7 18 15 11 8 13 4 7 21 14 10
3 3 4 3 4 7 4 3 4 4 3 1 5 4 8 5 4 3 1 2 5 5 3 2 4 5 6 9 7 15 15 10 6 11 6 9 2 4 3 18 10 4 6 14 11
8 5 4 5 5 5 4 5 3 4 5 7 5 3 4 4 3 5 6 7 8 7 9 3 3 3 8 6 15 13 3 3 6 8 9 6 7 7 3 8 7 7 5 6 8

GFSSW_925_spd_258.txt.gz
Wind_Speed
16 15 15 14 12 11 11 11 11 12 14 15 15 14 14 17 15 7 3 2 7 17 18 17 10 6 6 4 1 1 4 1 1 1 3 4 3 7 4 6 0 2 6 13 24
17 17 16 14 12 11 10 10 11 12 13 14 13 12 13 16 11 4 2 5 13 18 19 13 7 5 4 3 1 3 2 4 2 2 4 5 0 5 3 4 4 9 16 25 24
17 17 17 15 12 10 9 9 10 11 11 13 12 10 12 11 2 3 4 10 16 18 10 8 7 5 2 2 0 2 0 2 6 3 1 3 3 2 9 3 4 16 15 18 19
18 18 17 15 13 10 9 9 9 10 10 11 10 9 10 3 5 4 5 11 15 14 9 6 3 3 3 5 4 2 3 3 2 4 1 2 3 0 8 4 8 15 18 16 14
19 19 17 15 13 11 10 9 9 9 9 9 9 9 3 2 3 5 1 5 14 11 3 2 4 3 2 2 6 1 6 3 4 5 4 6 3 4 13 8 11 14 16 15 13
20 19 18 16 14 12 11 9 9 8 8 7 8 6 2 3 3 6 4 8 7 9 1 4 2 2 0 2 2 7 10 6 1 5 5 9 5 9 6 13 13 15 14 13 13
20 20 19 18 16 13 12 12 11 9 6 4 6 4 1 3 1 5 3 4 3 5 2 4 4 2 3 4 3 11 6 6 6 4 5 10 3 4 13 16 15 13 13 11 12
20 21 20 19 17 16 15 17 9 5 2 1 4 1 2 1 6 6 3 3 4 4 5 7 2 2 2 1 4 2 3 3 3 3 5 3 6 5 16 18 16 14 13 13 11
20 20 20 18 18 18 18 5 5 4 1 1 2 1 2 6 1 1 0 1 1 2 2 2 1 3 3 3 3 1 3 3 5 9 3 8 5 3 14 15 15 14 13 13 10
21 20 19 18 19 18 15 5 5 3 4 2 2 3 6 3 4 3 1 1 1 1 4 5 5 4 4 5 2 2 2 1 6 8 14 8 12 5 13 16 16 15 13 13 12
23 20 18 16 17 14 14 1 6 4 4 2 2 2 4 7 5 2 1 3 3 8 3 4 5 2 2 2 2 2 3 4 5 5 7 15 11 12 14 12 14 15 14 14 14
24 20 17 16 11 9 14 6 3 4 6 1 3 4 8 3 3 2 1 3 4 3 2 6 1 3 3 2 3 3 2 4 5 2 8 7 14 9 17 22 20 18 16 15 10
25 19 16 15 5 5 8 6 17 2 3 6 3 3 4 3 1 3 2 2 4 3 3 5 2 2 4 5 5 3 1 3 4 7 3 1 5 8 13 13 14 14 15 14 15
27 18 13 11 2 7 2 17 12 4 5 5 3 4 3 2 4 3 2 3 6 4 4 1 3 4 5 2 4 2 5 3 5 4 2 3 4 4 7 18 15 18 17 16 15
27 15 9 7 4 1 4 19 3 3 4 2 3 3 6 6 3 11 6 4 3 3 6 3 5 5 5 4 1 6 4 5 3 4 1 2 2 6 6 11 18 19 21 21 19
23 14 6 3 4 2 12 11 2 5 2 2 4 6 5 9 8 8 7 8 3 6 6 3 4 5 3 4 2 5 1 5 4 3 1 6 6 5 6 13 17 18 22 24 22
20 12 6 4 2 5 13 4 5 4 3 3 3 5 5 7 7 8 7 9 4 5 6 7 4 5 4 7 7 11 6 3 3 0 5 2 0 7 6 5 9 16 22 24 22
21 8 4 7 3 6 3 5 4 3 2 2 3 4 6 5 5 7 3 6 8 6 4 3 5 7 8 1 4 5 4 4 3 3 5 5 6 5 7 8 9 10 16 19 20
15 3 2 2 4 2 5 4 7 5 3 5 4 6 6 5 4 3 5 2 3 3 4 3 4 5 2 3 1 5 3 2 2 2 2 4 8 8 7 10 9 9 7 14 20
8 4 4 4 5 4 5 4 3 3 4 4 4 2 3 5 4 4 3 5 3 3 1 3 2 2 6 5 4 3 3 3 3 2 4 5 5 5 10 13 20 22 13 12 17
4 3 11 6 2 5 4 5 4 2 3 3 3 4 3 2 3 1 1 1 3 4 4 3 3 6 2 2 4 5 4 3 3 4 4 3 6 5 5 9 20 21 18 16 13
3 3 8 2 4 1 2 4 3 3 5 4 5 4 3 2 2 2 3 1 5 1 3 2 4 2 6 5 4 4 4 4 4 6 2 2 6 10 8 15 17 23 22 17 9
2 2 4 3 2 2 4 1 1 3 2 3 3 2 2 3 3 1 2 3 7 3 3 3 1 3 8 6 5 5 2 2 2 2 4 2 6 14 19 20 20 21 24 14 11
3 3 4 4 1 3 3 2 3 5 4 5 4 5 4 2 5 4 1 1 4 3 5 6 3 7 6 7 3 3 3 5 3 2 5 7 17 10 18 14 23 21 19 13 12
4 0 2 2 4 3 2 4 2 3 3 5 4 3 5 3 1 1 1 4 2 2 3 4 3 5 6 8 3 6 8 8 7 7 7 12 22 15 8 14 14 14 15 11 13
3 2 4 1 2 2 6 3 3 2 3 2 7 3 3 6 7 7 4 3 5 2 2 2 3 4 4 7 7 5 8 14 14 15 16 12 13 2 11 7 9 13 14 11 11
4 2 3 4 3 3 2 4 3 3 5 5 9 5 2 5 6 5 6 2 2 4 4 3 4 2 5 4 6 5 11 11 6 7 6 7 7 6 6 5 7 10 11 10 9

GFSSW_925_spd_264.txt.gz
Wind_Speed
12 12 12 12 10 10 10 10 10 11 12 13 14 14 13 11 9 2 2 3 5 15 14 9 4 2 2 1 2 3 4 5 6 5 8 7 8 5 5 10 3 3 5 22 23
12 13 12 11 11 10 9 9 10 10 11 12 13 12 11 10 4 3 1 7 14 15 11 8 4 2 1 1 0 3 0 4 3 5 8 6 6 7 8 9 7 6 15 23 23
13 13 13 12 10 9 9 9 10 10 11 11 12 10 8 7 7 5 3 8 16 12 6 4 4 3 3 4 2 3 4 6 5 8 3 5 6 2 10 3 5 12 19 20 22
13 13 12 12 11 9 9 9 9 9 10 10 10 8 5 2 3 4 8 15 13 6 4 2 3 4 2 3 3 2 4 4 5 4 4 4 3 4 3 7 8 16 18 19 17
14 15 14 12 10 9 9 9 9 9 8 8 8 7 2 6 5 1 11 18 11 4 8 1 3 5 9 4 1 4 6 6 5 7 5 5 3 2 6 7 15 18 18 16 14
15 15 14 13 11 10 11 10 11 10 7 6 6 4 4 6 2 4 9 13 9 7 4 4 4 6 4 6 5 7 7 8 4 5 4 3 5 3 9 12 17 18 17 15 14
18 16 15 13 12 14 14 13 10 7 5 3 4 2 4 8 4 7 10 7 7 6 5 3 6 8 2 0 5 2 7 8 3 4 2 8 7 6 12 15 16 16 15 14 13
19 18 16 14 14 16 14 5 4 2 1 1 2 2 6 4 4 5 6 5 4 5 6 5 8 5 5 4 4 2 5 9 6 6 3 7 9 4 11 15 16 16 15 14 14
20 18 15 14 16 14 9 2 4 4 1 1 1 6 9 4 5 4 5 3 6 4 3 5 5 2 3 8 5 2 6 8 7 6 1 3 3 6 11 13 14 15 15 14 14
20 19 14 13 15 12 2 2 2 2 1 2 4 5 8 6 4 4 3 1 2 5 5 5 5 6 3 8 1 5 3 5 5 5 3 5 6 10 10 13 12 15 15 15 15
21 21 14 11 9 9 2 3 5 5 3 6 6 3 7 3 3 4 2 4 4 7 11 5 9 9 4 2 2 3 6 2 3 4 6 3 4 3 11 12 13 15 16 16 16
21 21 13 9 3 5 4 1 4 4 7 4 2 3 3 0 6 5 2 6 8 10 6 8 11 5 2 1 4 6 6 6 5 1 6 7 7 3 10 13 14 15 16 17 17
20 20 12 9 1 1 5 4 4 4 4 6 4 5 4 3 4 6 4 3 6 8 12 10 8 2 5 4 8 8 11 6 8 9 11 10 12 5 5 9 12 14 15 17 17
21 18 11 7 3 1 1 5 3 5 6 8 5 4 1 2 5 4 4 1 3 5 5 2 2 3 5 6 7 11 5 9 10 9 8 2 6 5 6 9 13 15 16 17 18
22 16 8 3 4 3 2 6 3 4 5 6 5 2 1 1 6 6 2 3 5 6 6 5 3 4 5 3 4 4 7 8 10 12 14 14 8 7 3 7 10 12 14 15 16
22 15 5 2 4 1 4 2 5 7 4 7 3 5 7 7 5 3 3 7 2 6 8 9 2 5 4 2 3 7 9 10 11 11 14 16 16 11 8 4 5 10 3 8 13
21 11 5 6 2 1 4 6 7 7 5 8 9 5 10 8 8 3 5 4 0 6 6 6 2 3 5 7 6 8 11 8 8 9 11 6 10 9 1 12 9 9 9 11 10
18 2 4 7 3 3 6 8 9 2 9 7 8 7 5 6 5 4 4 7 6 5 2 6 7 2 4 5 7 7 9 7 7 9 3 5 6 6 7 12 8 10 10 11 11
8 2 4 3 6 4 6 11 5 7 10 14 10 10 9 6 3 4 1 2 5 7 4 3 3 2 1 5 5 5 7 8 9 11 8 9 7 4 9 8 8 9 10 13 14
1 5 5 3 4 7 7 6 4 2 8 15 9 5 8 7 8 6 5 3 4 4 5 3 5 3 1 4 6 8 6 6 6 5 8 5 4 9 9 5 8 11 13 14 15
5 5 3 6 3 6 8 4 6 8 5 7 5 7 5 7 3 4 4 5 2 3 4 3 4 8 4 6 5 5 9 8 8 6 8 8 3 9 4 6 12 14 17 17 18
5 4 3 5 6 3 6 6 1 10 4 5 4 5 6 6 4 3 6 3 3 2 1 3 4 7 6 3 6 11 8 10 9 8 8 9 12 5 4 8 15 19 19 18 18
2 2 2 5 5 7 5 8 4 9 8 8 5 2 5 5 3 4 7 6 4 2 0 1 3 7 8 7 6 10 8 7 8 8 13 12 6 5 3 15 15 19 21 20 19
3 4 3 3 3 4 10 10 9 2 6 4 8 7 7 6 1 6 8 7 3 1 3 1 10 11 12 12 6 11 11 11 12 10 13 18 19 19 17 17 19 18 17 19 19
3 3 3 5 4 3 4 7 11 8 3 6 5 7 6 5 6 6 5 7 6 8 5 5 10 11 13 14 15 15 16 17 18 18 20 21 24 21 19 21 18 16 16 19 18
4 2 2 2 1 6 5 5 10 6 9 10 7 8 6 4 3 5 4 4 4 6 7 3 8 8 13 15 15 19 19 19 21 22 24 23 26 21 18 15 14 13 17 19 20
5 1 4 1 3 6 3 5 5 6 3 2 5 7 8 5 2 3 3 2 2 6 7 8 7 6 12 2 9 12 18 19 20 19 20 20 19 18 18 19 19 17 16 20 19